Location: Baili�vre
(50.0696°N, 4.2409°E)
Time: 05:34:33
(UTC+00:00)

MetOp-B - Pass Details

Date: 08 August 2020
Orbit: 818 x 822 km, 98.7° (Epoch: 19 September)

Event Time Altitude Azimuth Distance (km) Brightness Sun altitude
Exits shadow 20:25:44 - 163° (SSE) 2,547 6.2 -10.5°
Reaches altitude 10° 20:26:04 10° 163° (SSE) 2,415 6.1 -10.5°
Maximum altitude 20:31:26 90° 38° (NE) 830 4.2 -11.2°
Drops below altitude 10° 20:36:51 10° 345° (NNW) 2,432 7.6 -11.8°
Sets 20:39:12 0° 346° (NNW) 3,369 8.4 -12.1°
